"Pseudo-MPEC" for ZTF01rc

Created 2018 Dec 10 20:18:13 UT using Find_Orb

Click here for an explanation of pseudo-MPECs

 
 Astrometry: 
     ZTF01rc  C2018 12 03.29127303 54 22.17 +18 30 47.3          15.55RUNEOCPI41
     ZTF01rc  C2018 12 03.29162003 54 28.89 +18 31 30.1          15.55RUNEOCPI41
     ZTF01rc  C2018 12 03.30927104 00 25.86 +19 07 49.4          15.51RUNEOCPI41
     ZTF01rc  C2018 12 03.30961804 00 33.11 +19 08 31.8          15.51RUNEOCPI41

Station data:
(I41) Palomar Mountain--ZTF  (N33.357340 W116.859780)  US/California. 1.2-m
   f/2.44 Oschin Schmidt + CCD.

Orbital elements:  ZTF01rc
   Perigee 2018 Dec 3.066352 +/- 34.9 TT =  1:35:32 (JD 2458455.566352)
Epoch 2018 Dec  3.0 TT = JDT 2458455.5                        AutoNEOCP
M 341.81697405 +/- 60               (J2000 equator)
n 274.03903082 +/- 0.479            Peri.  261.26893 +/- 41
a 50667.3928 +/- 3.26e+7            Node     8.33180 +/- 41
e   0.8009090 +/- 0.237             Incl.   25.28162 +/- 0.8
P1891.67m/1.314d           H 32.5   G  0.15   U 12.2  SR
q 10087.4186 +/- 1.36e+7    Q 91247.3670 +/- 3.26e+9
From 4 observations 2018 Dec. 3 (26.4 min); mean residual 3".05
Residuals in arcseconds: 
181203 I41  4.3+  1.8+    181203 I41  3.7-  1.4-    
181203 I41  4.3-  1.8-    181203 I41  3.7+  1.4+    

Ephemerides (geocentric):
Date (UTC) HH   RA              Dec         delta   r     elong  mag " sig PA
---- -- -- --  -------------   -----------  ------ ------ -----  --- ---- ---
2018 12 10 20  09 14 40.085   +19 40 30.47   40976 .98491 123.3 16.7  51d  17
2018 12 10 21  10 10 17.159   +15 16 04.50   30304 .98482 109.4 16.5  52d  17
2018 12 10 22  12 11 35.754   +02 20 59.94   17501 .98473  76.8 16.6  54d  16
2018 12 10 23  20 42 36.316   -21 38 32.14   11080 .98470  48.8 17?? 126d 177
2018 12 11 00  01 05 52.381   +04 03 29.91   23748 .98482 118.1 15.7 123d 174
2018 12 11 01  02 21 39.243   +12 20 06.43   35551 .98491 138.5 16.0  96d 176
2018 12 11 02  03 03 12.865   +16 12 08.47   45350 .98499 149.2 16.2  85d 177
2018 12 11 03  03 31 41.113   +18 29 33.45   53623 .98505 156.4 16.3  65d   3
2018 12 11 04  03 53 27.571   +20 01 48.45   60696 .98511 161.7 16.5  64d   4
2018 12 11 05  04 11 15.153   +21 08 37.06   66778 .98515 165.9 16.5  64d   4
2018 12 11 06  04 26 27.318   +21 59 28.80   72013 .98518 169.5 16.5  63d   4
2018 12 11 07  04 39 52.352   +22 39 33.50   76500 .98521 172.6 16.5  57d   9
2018 12 11 08  04 52 00.742   +23 11 54.75   80310 .98524 175.4 17.0  56d   9
2018 12 11 09  05 03 13.090   +23 38 28.33   83500 .98525 177.8 Sha   56d   9
2018 12 11 10  05 13 44.139   +24 00 30.53   86108 .98527 178.9 Sha   56d   9
2018 12 11 11  05 23 44.988   +24 18 53.24   88165 .98527 177.1 Sha   56d   9
2018 12 11 12  05 33 24.417   +24 34 12.28   89694 .98528 175.0 16.8  56d   9
2018 12 11 13  05 42 49.723   +24 46 52.34   90710 .98528 172.9 16.9  50d  18
2018 12 11 14  05 52 07.293   +24 57 09.93   91223 .98527 170.9 17.0  50d  18
2018 12 11 15  06 01 23.032   +25 05 15.02   91238 .98526 168.8 17.1  50d  18
2018 12 11 16  06 10 42.708   +25 11 11.96   90755 .98525 166.8 17.2  50d  18
2018 12 11 17  06 20 12.290   +25 14 59.69   89770 .98523 164.7 17.2  50d  18
2018 12 11 18  06 29 58.304   +25 16 31.34   88273 .98521 162.5 17.2  50d  18
2018 12 11 19  06 40 08.266   +25 15 33.09   86249 .98519 160.2 17.3  50d  18
2018 12 11 20  06 50 51.281   +25 11 41.97   83675 .98516 157.9 17.3  50d  18
2018 12 11 21  07 02 18.906   +25 04 22.03   80522 .98512 155.3 17.3  50d  18
2018 12 11 22  07 14 46.517   +24 52 37.54   76751 .98509 152.5 17.2  50d  18
2018 12 11 23  07 28 35.605   +24 35 00.58   72309 .98504 149.4 17.2  50d  18
2018 12 12 00  07 44 17.887   +24 09 07.09   67123 .98499 145.9 17.1  50d  18
2018 12 12 01  08 02 43.327   +23 30 46.86   61098 .98494 141.6 17.1  50d  18
2018 12 12 02  08 25 17.494   +22 32 07.11   54093 .98487 136.4 16.9  50d  18
2018 12 12 03  08 54 44.817   +20 56 17.73   45904 .98480 129.4 16.8  51d  17
2018 12 12 04  09 37 21.679   +17 59 52.44   36216 .98472 119.0 16.6  52d  17
2018 12 12 05  10 52 40.560   +11 08 20.01   24557 .98462  99.6 16.3  53d  17
2018 12 12 06  14 43 18.549   -14 25 43.33   11663 .98453  37.1 19??  54d  17
2018 12 12 07  23 40 44.654   -05 52 01.71   16648 .98459  93.3 15.7 129d 174
2018 12 12 08  01 48 41.187   +08 55 16.97   29558 .98470 128.4 15.8 113d 174
2018 12 12 09  02 43 37.237   +14 28 42.74   40356 .98479 142.9 16.1  95d 176
2018 12 12 10  03 17 50.180   +17 26 24.03   49388 .98486 151.6 16.3  73d   1
2018 12 12 11  03 42 42.838   +19 18 54.25   57066 .98492 157.7 16.4  65d   4
2018 12 12 12  04 02 24.672   +20 37 27.12   63653 .98497 162.5 16.5  64d   4
2018 12 12 13  04 18 52.718   +21 35 47.49   69323 .98501 166.4 16.6  64d   4
2018 12 12 14  04 33 10.815   +22 20 58.14   74197 .98504 169.8 16.6  57d   9
2018 12 12 15  04 45 57.562   +22 56 59.29   78359 .98507 172.7 16.6  56d   9
2018 12 12 16  04 57 38.166   +23 26 17.79   81872 .98509 175.3 16.7  56d   9
2018 12 12 17  05 08 30.142   +23 50 28.37   84784 .98510 177.7 Sha   56d   9
2018 12 12 18  05 18 46.331   +24 10 34.44   87131 .98511 178.9 Sha   56d   9
2018 12 12 19  05 28 36.627   +24 27 19.52   88938 .98512 177.3 Sha   56d   9